TAY001A WSSS-EBLG

Flight info

Callsign TAY001A
Flight time N/A
Altitude 32000
Route AROSO Y513 KALIL Y501 VIH R325 RINBA Y502 DUBAX R325 PUT L759 TAVUN/N0497F340 L759 BBS W50 LAPAN M875 BUTOP/N0482F360 M875 DI N644 LEMOD A909 BABUM/N0474F380 A909 RODAR N644 ROLIN UN644 KARDE DCT SUNUM UW90 INB UL746 ODERO DCT DEGET/N0473F400 DCT ABETI DCT RENKA DCT MAMOR DCT PETIX DCT BOMBI DCT ADKUV DCT LNO
Aircraft B77L/H-SDE1E2E3FGHIJ2J3J4J5M1RWXY/LB1D1

Departure

Time N/A
Airport Singapore Changi Airport (WSSS)

Arrival

Time 2026-04-24 20:48
Airport Liège Airport (EBLG)
Time Latitude Longitude Altitude Speed Heading
2026-04-24 18:54 45.76823 23.18110 38016 ft 456 kts 303°
2026-04-24 18:55 45.81526 23.06099 38018 ft 455 kts 303°
2026-04-24 18:56 45.84644 22.98108 38013 ft 454 kts 303°
2026-04-24 18:56 45.87758 22.90101 38017 ft 455 kts 303°
2026-04-24 18:57 45.90887 22.82036 38029 ft 453 kts 303°
2026-04-24 18:57 45.94027 22.73918 38011 ft 455 kts 303°
2026-04-24 18:58 45.97154 22.65807 38015 ft 455 kts 303°
2026-04-24 18:58 46.00295 22.57637 38007 ft 453 kts 303°
2026-04-24 18:59 46.03392 22.49559 38017 ft 454 kts 303°
2026-04-24 18:59 46.06523 22.41369 38009 ft 456 kts 303°
2026-04-24 19:00 46.09602 22.33288 38016 ft 457 kts 303°
2026-04-24 19:00 46.12698 22.25138 38046 ft 454 kts 303°
2026-04-24 19:01 46.15762 22.17050 38026 ft 456 kts 303°
2026-04-24 19:01 46.18786 22.09039 38029 ft 452 kts 303°
2026-04-24 19:02 46.21306 22.02350 38035 ft 453 kts 303°
2026-04-24 19:02 46.24851 21.92912 38029 ft 454 kts 303°
2026-04-24 19:03 46.27892 21.84786 38021 ft 452 kts 303°
2026-04-24 19:03 46.30940 21.76619 38032 ft 453 kts 303°
2026-04-24 19:04 46.33990 21.68420 38019 ft 454 kts 303°
2026-04-24 19:04 46.37015 21.60265 38027 ft 453 kts 303°
2026-04-24 19:05 46.40066 21.52014 38016 ft 452 kts 303°
2026-04-24 19:05 46.41574 21.47928 38264 ft 454 kts 303°
2026-04-24 19:05 46.43078 21.43844 38249 ft 452 kts 303°
2026-04-24 19:05 46.44567 21.39797 37758 ft 453 kts 303°
2026-04-24 19:06 46.46040 21.35783 38179 ft 446 kts 303°
2026-04-24 19:06 46.47509 21.31782 38019 ft 454 kts 302°
2026-04-24 19:06 46.48951 21.27747 38037 ft 452 kts 300°
2026-04-24 19:07 46.51544 21.19381 38005 ft 453 kts 298°
2026-04-24 19:07 46.53695 21.12317 37994 ft 452 kts 298°
2026-04-24 19:08 46.56675 21.02462 37988 ft 452 kts 298°
2026-04-24 19:08 46.59243 20.93916 37991 ft 453 kts 298°
2026-04-24 19:09 46.61792 20.85400 37995 ft 454 kts 298°
2026-04-24 19:09 46.64343 20.76837 38005 ft 452 kts 298°
2026-04-24 19:10 46.66892 20.68257 37984 ft 454 kts 298°
2026-04-24 19:10 46.69429 20.59682 37987 ft 455 kts 298°
2026-04-24 19:11 46.71953 20.51118 38000 ft 456 kts 298°
2026-04-24 19:11 46.74458 20.42588 37989 ft 452 kts 298°
2026-04-24 19:12 46.76955 20.34062 38003 ft 453 kts 297°
2026-04-24 19:12 46.79439 20.25549 37985 ft 452 kts 297°
2026-04-24 19:13 46.81485 20.18511 37994 ft 452 kts 298°
2026-04-24 19:13 46.84366 20.08574 37993 ft 453 kts 297°
2026-04-24 19:14 46.86825 20.00058 37987 ft 455 kts 297°
2026-04-24 19:14 46.89247 19.91639 37995 ft 456 kts 297°
2026-04-24 19:15 46.91707 19.83062 37993 ft 454 kts 297°
2026-04-24 19:15 46.94137 19.74555 37991 ft 454 kts 297°
2026-04-24 19:16 46.97827 19.61584 37996 ft 453 kts 297°
2026-04-24 19:16 47.00284 19.52909 37992 ft 453 kts 297°
2026-04-24 19:17 47.02745 19.44187 37995 ft 454 kts 297°
2026-04-24 19:17 47.05190 19.35492 37994 ft 452 kts 297°
2026-04-24 19:18 47.07581 19.26957 38002 ft 453 kts 297°
2026-04-24 19:18 47.09992 19.18321 38000 ft 454 kts 297°
2026-04-24 19:19 47.12381 19.09733 38016 ft 454 kts 296°
2026-04-24 19:19 47.14746 19.01198 38014 ft 453 kts 296°
2026-04-24 19:20 47.17115 18.92621 38014 ft 453 kts 297°
2026-04-24 19:20 47.19496 18.83969 38015 ft 453 kts 297°
2026-04-24 19:21 47.21885 18.75260 38026 ft 455 kts 296°
2026-04-24 19:21 47.24275 18.66506 38019 ft 451 kts 296°
2026-04-24 19:22 47.26629 18.57860 38022 ft 453 kts 296°
2026-04-24 19:22 47.29018 18.49049 38020 ft 452 kts 296°
2026-04-24 19:23 47.31377 18.40318 38020 ft 454 kts 296°
2026-04-24 19:23 47.33744 18.31524 38023 ft 456 kts 296°
2026-04-24 19:24 47.36062 18.22881 38023 ft 456 kts 296°
2026-04-24 19:24 47.38385 18.14183 38026 ft 455 kts 295°
2026-04-24 19:25 47.40702 18.05479 38021 ft 454 kts 295°
2026-04-24 19:25 47.43006 17.96790 38025 ft 453 kts 295°
2026-04-24 19:26 47.45307 17.88081 38026 ft 453 kts 295°
2026-04-24 19:26 47.47604 17.79356 38027 ft 454 kts 295°
2026-04-24 19:27 47.49910 17.70565 38027 ft 456 kts 295°
2026-04-24 19:27 47.52206 17.61772 38026 ft 453 kts 295°
2026-04-24 19:28 47.54494 17.52980 38026 ft 455 kts 295°
2026-04-24 19:28 47.56785 17.44141 38025 ft 453 kts 295°
2026-04-24 19:29 47.60187 17.30957 38043 ft 453 kts 294°
2026-04-24 19:30 47.62458 17.22197 38038 ft 453 kts 296°
2026-04-24 19:30 47.64856 17.13605 38034 ft 452 kts 296°
2026-04-24 19:31 47.67284 17.04905 38049 ft 451 kts 296°
2026-04-24 19:31 47.69682 16.96282 38050 ft 451 kts 296°
2026-04-24 19:32 47.72061 16.87699 38052 ft 452 kts 296°
2026-04-24 19:32 47.74445 16.79065 38042 ft 453 kts 296°
2026-04-24 19:33 47.76834 16.70381 38058 ft 452 kts 296°
2026-04-24 19:33 47.79203 16.61736 38063 ft 451 kts 296°
2026-04-24 19:34 47.81546 16.53159 38067 ft 451 kts 295°
2026-04-24 19:34 47.83911 16.44470 38067 ft 453 kts 295°
2026-04-24 19:35 47.86256 16.35817 38060 ft 449 kts 295°
2026-04-24 19:35 47.88625 16.27048 38065 ft 454 kts 295°
2026-04-24 19:36 47.90976 16.18310 38061 ft 452 kts 295°
2026-04-24 19:36 47.93324 16.09554 38077 ft 451 kts 295°
2026-04-24 19:37 47.95660 16.00807 38081 ft 452 kts 295°
2026-04-24 19:37 47.97989 15.92055 38084 ft 452 kts 295°
2026-04-24 19:38 48.00307 15.83310 38092 ft 451 kts 295°
2026-04-24 19:38 48.02616 15.74567 38079 ft 453 kts 294°
2026-04-24 19:39 48.04888 15.65929 38080 ft 450 kts 294°
2026-04-24 19:39 48.07174 15.57211 38072 ft 450 kts 294°
2026-04-24 19:40 48.09477 15.48394 38077 ft 450 kts 294°
2026-04-24 19:40 48.11722 15.39759 38079 ft 448 kts 294°
2026-04-24 19:41 48.13994 15.30996 38096 ft 449 kts 293°
2026-04-24 19:41 48.16247 15.22267 38097 ft 450 kts 294°
2026-04-24 19:42 48.18496 15.13522 38097 ft 447 kts 293°
2026-04-24 19:42 48.20728 15.04814 38109 ft 452 kts 294°
2026-04-24 19:43 48.22939 14.96150 38102 ft 448 kts 294°
2026-04-24 19:43 48.25178 14.87343 38105 ft 447 kts 293°
2026-04-24 19:44 48.27394 14.78593 38106 ft 450 kts 293°
2026-04-24 19:44 48.29589 14.69893 38103 ft 447 kts 293°
2026-04-24 19:45 48.31769 14.61218 38107 ft 449 kts 293°
2026-04-24 19:45 48.33956 14.52483 38112 ft 450 kts 293°
2026-04-24 19:46 48.36138 14.43734 38112 ft 447 kts 293°
2026-04-24 19:46 48.38311 14.34986 38109 ft 449 kts 292°
2026-04-24 19:47 48.40442 14.26375 38111 ft 446 kts 292°
2026-04-24 19:47 48.42607 14.17591 38112 ft 447 kts 292°
2026-04-24 19:48 48.44704 14.09051 38109 ft 444 kts 292°
2026-04-24 19:48 48.47899 13.95976 38118 ft 448 kts 292°
2026-04-24 19:49 48.52178 13.78340 38127 ft 448 kts 292°
2026-04-24 19:50 48.56417 13.60731 38128 ft 445 kts 292°
2026-04-24 19:51 48.59568 13.47551 38130 ft 446 kts 291°
2026-04-24 19:52 48.62659 13.34540 38132 ft 445 kts 290°
2026-04-24 19:52 48.64732 13.25773 38136 ft 446 kts 291°
2026-04-24 19:53 48.66812 13.16936 38134 ft 444 kts 291°
2026-04-24 19:54 48.69893 13.03786 38141 ft 448 kts 290°
2026-04-24 19:54 48.71961 12.94913 38142 ft 446 kts 290°
2026-04-24 19:55 48.73325 12.89039 38129 ft 440 kts 290°
2026-04-24 19:55 48.76028 12.77354 38133 ft 445 kts 290°
2026-04-24 19:56 48.78068 12.68493 38137 ft 446 kts 290°
2026-04-24 19:56 48.80082 12.59712 38139 ft 445 kts 290°
2026-04-24 19:57 48.82102 12.50863 38134 ft 444 kts 290°
2026-04-24 19:57 48.84112 12.42021 38137 ft 444 kts 290°
2026-04-24 19:58 48.86072 12.33365 38133 ft 441 kts 289°
2026-04-24 19:58 48.88074 12.24485 38138 ft 443 kts 289°
2026-04-24 19:59 48.90378 12.15842 38147 ft 440 kts 296°
2026-04-24 19:59 48.93132 12.07542 38141 ft 443 kts 296°
2026-04-24 20:00 48.95851 11.99165 38141 ft 444 kts 296°
2026-04-24 20:00 48.98534 11.90773 38139 ft 441 kts 295°
2026-04-24 20:01 49.01183 11.82414 38132 ft 443 kts 295°
2026-04-24 20:01 49.03826 11.74018 38126 ft 440 kts 295°
2026-04-24 20:02 49.06015 11.67032 38130 ft 441 kts 295°
2026-04-24 20:02 49.09116 11.57097 38126 ft 443 kts 295°
2026-04-24 20:03 49.11748 11.48626 38132 ft 442 kts 295°
2026-04-24 20:03 49.14344 11.40243 38129 ft 440 kts 295°
2026-04-24 20:04 49.16977 11.31711 38141 ft 444 kts 294°
2026-04-24 20:04 49.19533 11.23400 38136 ft 439 kts 294°
2026-04-24 20:05 49.22153 11.14852 38135 ft 441 kts 294°
2026-04-24 20:05 49.24738 11.06386 38135 ft 444 kts 294°
2026-04-24 20:06 49.27332 10.97864 38138 ft 444 kts 294°
2026-04-24 20:06 49.29925 10.89314 38143 ft 440 kts 294°
2026-04-24 20:07 49.32059 10.82255 38143 ft 441 kts 294°
2026-04-24 20:07 49.35107 10.72392 38145 ft 441 kts 298°
2026-04-24 20:08 49.38257 10.64240 38150 ft 442 kts 299°
2026-04-24 20:08 49.41349 10.56198 38145 ft 440 kts 299°
2026-04-24 20:09 49.44441 10.48060 38141 ft 444 kts 299°
2026-04-24 20:09 49.47535 10.39858 38140 ft 442 kts 298°
2026-04-24 20:10 49.50596 10.31700 38151 ft 443 kts 298°
2026-04-24 20:10 49.53598 10.23666 38151 ft 441 kts 298°
2026-04-24 20:11 49.56407 10.16121 38157 ft 440 kts 298°
2026-04-24 20:11 49.59455 10.07904 38157 ft 444 kts 297°
2026-04-24 20:12 49.62498 9.99680 38163 ft 442 kts 297°
2026-04-24 20:12 49.65534 9.91444 38156 ft 440 kts 297°
2026-04-24 20:13 49.68556 9.83220 38150 ft 442 kts 297°
2026-04-24 20:13 49.71571 9.74987 38152 ft 439 kts 297°
2026-04-24 20:14 49.74572 9.66769 38144 ft 439 kts 297°
2026-04-24 20:14 49.77578 9.58510 38148 ft 445 kts 297°
2026-04-24 20:14 49.79092 9.54340 38139 ft 434 kts 297°
2026-04-24 20:15 49.80549 9.50325 38122 ft 419 kts 297°
2026-04-24 20:15 49.81952 9.46452 37911 ft 409 kts 297°
2026-04-24 20:15 49.83335 9.42623 37043 ft 413 kts 297°
2026-04-24 20:15 49.84745 9.38712 36024 ft 418 kts 297°
2026-04-24 20:16 49.86089 9.34981 35435 ft 417 kts 296°
2026-04-24 20:16 49.87528 9.30982 35061 ft 423 kts 296°
2026-04-24 20:16 49.88969 9.26967 34764 ft 427 kts 296°
2026-04-24 20:16 49.90435 9.22880 34467 ft 429 kts 296°
2026-04-24 20:17 49.91889 9.18822 34206 ft 428 kts 296°
2026-04-24 20:17 49.96143 9.06906 34151 ft 429 kts 296°
2026-04-24 20:18 49.99027 8.98798 34154 ft 425 kts 296°
2026-04-24 20:18 50.01905 8.90679 34157 ft 427 kts 296°
2026-04-24 20:19 50.04753 8.82617 34159 ft 428 kts 296°
2026-04-24 20:19 50.07068 8.74046 34156 ft 424 kts 289°
2026-04-24 20:20 50.09125 8.65396 33597 ft 430 kts 289°
2026-04-24 20:20 50.10160 8.61021 33056 ft 429 kts 289°
2026-04-24 20:20 50.11164 8.56768 32539 ft 431 kts 289°
2026-04-24 20:21 50.12203 8.52354 32006 ft 432 kts 289°
2026-04-24 20:21 50.13242 8.47928 31470 ft 432 kts 288°
2026-04-24 20:21 50.14268 8.43544 30945 ft 434 kts 289°
2026-04-24 20:21 50.15313 8.39075 30407 ft 434 kts 289°
2026-04-24 20:22 50.16317 8.34769 29872 ft 436 kts 288°
2026-04-24 20:22 50.17357 8.30299 29346 ft 438 kts 288°
2026-04-24 20:22 50.18359 8.25985 28824 ft 438 kts 288°
2026-04-24 20:22 50.19403 8.21477 28291 ft 440 kts 288°
2026-04-24 20:23 50.20452 8.16943 27758 ft 437 kts 288°
2026-04-24 20:23 50.21373 8.12952 27282 ft 432 kts 288°
2026-04-24 20:23 50.22317 8.08853 26792 ft 427 kts 288°
2026-04-24 20:23 50.23319 8.04494 26274 ft 425 kts 288°
2026-04-24 20:24 50.23991 8.01568 25928 ft 423 kts 288°
2026-04-24 20:24 50.25267 7.95994 25255 ft 419 kts 288°
2026-04-24 20:24 50.26244 7.91717 24747 ft 416 kts 288°
2026-04-24 20:24 50.27215 7.87459 24280 ft 412 kts 288°
2026-04-24 20:25 50.28179 7.83221 24187 ft 412 kts 288°
2026-04-24 20:25 50.29136 7.79011 24187 ft 412 kts 288°
2026-04-24 20:25 50.30100 7.74755 24181 ft 412 kts 288°
2026-04-24 20:25 50.31056 7.70526 24182 ft 413 kts 288°
2026-04-24 20:26 50.32021 7.66251 24184 ft 412 kts 288°
2026-04-24 20:26 50.32967 7.62051 24182 ft 413 kts 288°
2026-04-24 20:26 50.33937 7.57735 24193 ft 411 kts 288°
2026-04-24 20:26 50.34885 7.53512 24185 ft 412 kts 288°
2026-04-24 20:27 50.35831 7.49284 24182 ft 413 kts 288°
2026-04-24 20:27 50.36769 7.45089 24185 ft 414 kts 288°
2026-04-24 20:27 50.37723 7.40810 24187 ft 415 kts 288°
2026-04-24 20:27 50.38668 7.36562 24197 ft 415 kts 288°
2026-04-24 20:28 50.39606 7.32341 24192 ft 414 kts 287°
2026-04-24 20:28 50.40540 7.28124 24203 ft 415 kts 287°
2026-04-24 20:28 50.41493 7.23818 24203 ft 415 kts 287°
2026-04-24 20:28 50.42432 7.19564 24208 ft 414 kts 287°
2026-04-24 20:29 50.43061 7.16711 24194 ft 413 kts 287°
2026-04-24 20:29 50.44317 7.10997 24198 ft 415 kts 287°
2026-04-24 20:29 50.45255 7.06724 24199 ft 414 kts 287°
2026-04-24 20:29 50.46208 7.02367 24192 ft 416 kts 287°
2026-04-24 20:30 50.47158 6.98022 24194 ft 415 kts 287°
2026-04-24 20:30 50.48101 6.93693 24198 ft 414 kts 287°
2026-04-24 20:30 50.49019 6.89475 24058 ft 406 kts 287°
2026-04-24 20:30 50.49921 6.85325 23429 ft 403 kts 287°
2026-04-24 20:31 50.50651 6.81106 22828 ft 397 kts 278°
2026-04-24 20:31 50.51029 6.76865 22283 ft 390 kts 276°
2026-04-24 20:31 50.51362 6.72633 21761 ft 385 kts 276°
2026-04-24 20:31 50.51680 6.68494 21253 ft 379 kts 276°
2026-04-24 20:32 50.51990 6.64410 20749 ft 374 kts 276°
2026-04-24 20:32 50.52291 6.60424 20268 ft 369 kts 276°
2026-04-24 20:32 50.52594 6.56365 19748 ft 365 kts 276°
2026-04-24 20:32 50.52887 6.52407 19266 ft 360 kts 276°
2026-04-24 20:33 50.53172 6.48541 18775 ft 356 kts 276°
2026-04-24 20:33 50.53451 6.44722 18291 ft 355 kts 276°
2026-04-24 20:33 50.53742 6.40726 17794 ft 366 kts 277°
2026-04-24 20:33 50.54033 6.36712 17253 ft 364 kts 277°
2026-04-24 20:34 50.54310 6.32859 16761 ft 361 kts 276°
2026-04-24 20:34 50.54592 6.28923 16267 ft 358 kts 276°
2026-04-24 20:34 50.54875 6.24955 15731 ft 357 kts 276°
2026-04-24 20:34 50.55154 6.21020 15224 ft 356 kts 276°
2026-04-24 20:35 50.55432 6.17092 14709 ft 353 kts 277°
2026-04-24 20:35 50.55704 6.13217 14196 ft 351 kts 277°
2026-04-24 20:35 50.55974 6.09350 13652 ft 350 kts 277°
2026-04-24 20:35 50.56239 6.05543 13023 ft 351 kts 277°
2026-04-24 20:36 50.56501 6.01756 12490 ft 348 kts 277°
2026-04-24 20:36 50.56760 5.98007 12000 ft 345 kts 277°
2026-04-24 20:36 50.57017 5.94263 11560 ft 339 kts 277°
2026-04-24 20:36 50.57267 5.90592 11117 ft 335 kts 277°
2026-04-24 20:37 50.57512 5.86984 10595 ft 328 kts 277°
2026-04-24 20:37 50.57745 5.83536 10318 ft 309 kts 277°
2026-04-24 20:37 50.57968 5.80215 10328 ft 293 kts 277°
2026-04-24 20:37 50.58181 5.77030 10257 ft 280 kts 277°
2026-04-24 20:38 50.58388 5.73941 10083 ft 270 kts 277°
2026-04-24 20:38 50.58257 5.70999 9970 ft 261 kts 254°
2026-04-24 20:38 50.57513 5.68290 9758 ft 278 kts 244°
2026-04-24 20:38 50.56586 5.65625 9353 ft 280 kts 242°
2026-04-24 20:39 50.55615 5.62980 8964 ft 280 kts 241°
2026-04-24 20:39 50.54645 5.60360 8639 ft 278 kts 241°
2026-04-24 20:39 50.53669 5.57727 8330 ft 276 kts 241°
2026-04-24 20:39 50.52712 5.55146 7998 ft 275 kts 241°
2026-04-24 20:40 50.51751 5.52558 7674 ft 273 kts 241°
2026-04-24 20:40 50.50795 5.49983 7342 ft 273 kts 241°
2026-04-24 20:40 50.49843 5.47424 7017 ft 272 kts 241°
2026-04-24 20:40 50.48884 5.44845 6684 ft 270 kts 241°
2026-04-24 20:41 50.47942 5.42318 6375 ft 269 kts 241°
2026-04-24 20:41 50.46986 5.39821 6058 ft 268 kts 235°
2026-04-24 20:41 50.45761 5.37625 5746 ft 268 kts 226°
2026-04-24 20:41 50.44422 5.35537 5422 ft 269 kts 226°
2026-04-24 20:42 50.43433 5.33291 5101 ft 266 kts 250°
2026-04-24 20:42 50.43187 5.30528 4910 ft 254 kts 279°
2026-04-24 20:42 50.43758 5.28008 4880 ft 239 kts 304°
2026-04-24 20:42 50.44734 5.25934 4794 ft 232 kts 313°
2026-04-24 20:43 50.45793 5.24097 4699 ft 223 kts 316°
2026-04-24 20:43 50.46791 5.22611 4621 ft 220 kts 329°
2026-04-24 20:43 50.48215 5.21897 4538 ft 212 kts
2026-04-24 20:43 50.49626 5.22509 4334 ft 213 kts 31°
2026-04-24 20:44 50.50779 5.23943 4043 ft 210 kts 43°
2026-04-24 20:44 50.51790 5.25545 3773 ft 208 kts 45°
2026-04-24 20:44 50.52800 5.27172 3493 ft 206 kts 44°
2026-04-24 20:44 50.53792 5.28740 3207 ft 200 kts 44°
2026-04-24 20:45 50.54756 5.30252 2946 ft 192 kts 44°
2026-04-24 20:45 50.55678 5.31701 2714 ft 178 kts 44°
2026-04-24 20:45 50.56509 5.33008 2504 ft 163 kts 44°
2026-04-24 20:45 50.57288 5.34234 2290 ft 155 kts 44°
2026-04-24 20:46 50.58031 5.35404 2078 ft 146 kts 44°
2026-04-24 20:46 50.58727 5.36501 1885 ft 136 kts 44°
2026-04-24 20:46 50.59374 5.37521 1707 ft 132 kts 44°
2026-04-24 20:46 50.60028 5.38553 1521 ft 132 kts 44°
2026-04-24 20:47 50.60670 5.39566 1342 ft 131 kts 44°
2026-04-24 20:47 50.61322 5.40583 1132 ft 132 kts 43°
2026-04-24 20:47 50.61974 5.41591 986 ft 132 kts 44°
2026-04-24 20:47 50.62621 5.42618 799 ft 132 kts 44°
2026-04-24 20:48 50.63269 5.43648 674 ft 124 kts 44°
2026-04-24 20:48 50.63789 5.44467 673 ft 92 kts 45°
2026-04-24 20:48 50.64164 5.45063 673 ft 54 kts 46°
2026-04-24 20:48 50.64350 5.45360 673 ft 23 kts 45°
2026-04-24 20:49 50.64404 5.45523 673 ft 15 kts 90°
2026-04-24 20:49 50.64404 5.45657 673 ft 7 kts 91°
2026-04-24 20:49 50.64391 5.45732 673 ft 8 kts 130°
2026-04-24 20:49 50.64334 5.45713 673 ft 11 kts 229°
2026-04-24 20:50 50.64283 5.45619 673 ft 11 kts 229°
2026-04-24 20:50 50.64228 5.45531 673 ft 11 kts 225°
2026-04-24 20:50 50.64173 5.45442 673 ft 11 kts 225°
2026-04-24 20:50 50.64116 5.45353 673 ft 11 kts 224°
2026-04-24 20:51 50.64056 5.45258 673 ft 12 kts 225°
2026-04-24 20:51 50.63990 5.45151 673 ft 14 kts 225°
2026-04-24 20:51 50.63918 5.45042 673 ft 14 kts 225°
2026-04-24 20:51 50.63850 5.44933 673 ft 13 kts 225°
2026-04-24 20:52 50.63783 5.44826 673 ft 13 kts 225°
2026-04-24 20:52 50.63724 5.44730 673 ft 11 kts 225°
2026-04-24 20:52 50.63670 5.44645 673 ft 9 kts 224°
2026-04-24 20:52 50.63632 5.44602 673 ft 5 kts 175°
2026-04-24 20:53 50.63596 5.44639 673 ft 6 kts 137°
2026-04-24 20:53 50.63574 5.44674 673 ft 0 kts 135°
2026-04-24 20:53 50.63573 5.44675 673 ft 1 kts 135°
2026-04-24 20:53 50.63569 5.44682 673 ft 0 kts 135°